Regional Weather Roundup
Issued by NWS Newport/Morehead, NC

Current Version | Previous Version | Text Only | Print | Product List | Glossary On
Versions: 1 2 3 4 5 6 7 8 9 10 11 12 13 14 15 16 17 18 19 20 21 22 23 24 25 26 27 28 29 30 31 32 33 34 35 36 37 38 39 40 41 42 43 44 45 46 47 48 49 50
000
ASUS42 KMHX 280124
RWRMHX
WEATHER ROUNDUP FOR EASTERN NORTH CAROLINA
NATIONAL WEATHER SERVICE NEWPORT/MOREHEAD CITY NC
900 PM EDT MON APR 27 2015

NOTE: "FAIR" INDICATES FEW OR NO CLOUDS BELOW 12,000 FEET
WITH NO SIGNIFICANT WEATHER AND/OR OBSTRUCTIONS TO VISIBILITY

NCZ015>017-031-032-045>047-102-103-280200-
NORTH COAST

CITY           SKY/WX    TMP DP  RH WIND       PRES   REMARKS
EDENTON        CLOUDY    56  47  71 CALM      29.86R
ELIZABETH CITY CLOUDY    56  42  59 CALM      29.84R
KITTY HAWK     CLOUDY    52  43  71 CALM      29.82R
MANTEO         CLOUDY    53  42  65 CALM      29.84R

$$

NCZ045>047-081-094-103-104-280200-
CENTRAL COAST

CITY           SKY/WX    TMP DP  RH WIND       PRES   REMARKS
FRISCO         CLOUDY    51  38  60 NE6       29.82R
SWANQUARTER      N/A     55 N/A N/A E2        29.79S

$$

NCZ095-097-098-100-101-280200-
SOUTHERN COAST

CITY           SKY/WX    TMP DP  RH WIND       PRES   REMARKS
BEAUFORT       PTCLDY    60  46  59 NW7       29.82R
CEDAR ISLAND     N/A     61 N/A N/A NE10G17   29.85S
JACKSONVILLE   MOCLDY    59  42  53 VRB5      29.83R
PINEY ISLAND   PTCLDY   N/A N/A N/A NW8       29.81S
WILMINGTON     MOCLDY    60  47  61 CALM      29.83R


$$

NCZ011>013-027>030-043-044-078>080-089-090>093-098-280200-
COASTAL PLAIN

CITY           SKY/WX    TMP DP  RH WIND       PRES   REMARKS
AHOSKIE        CLOUDY    57  37  45 N5        29.87R
CLINTON        MOCLDY    59  46  63 CALM      29.87R
ELIZABETHTOWN  MOCLDY    61  41  48 NW3       29.85R
GOLDSBORO      MOCLDY    62  38  40 N7        29.84R
GREENVILLE     MOCLDY    61  37  41 N6        29.87R
HAVELOCK       PTCLDY    61  38  42 NW7       29.83R
KENANSVILLE    CLOUDY    60  40  48 N5        29.86R
KINSTON        PTCLDY    61  37  41 NW6       29.86R
NEW BERN       MOCLDY    56  43  61 CALM      29.84R
RICHLANDS      MOCLDY    54  45  71 CALM      29.85R
ROCKY MOUNT    CLOUDY    61  37  41 NW10      29.86R
WASHINGTON     CLOUDY    60  39  46 N5        29.84R
WHITEVILLE     MOCLDY    57  46  67 CALM      29.85R

$$

AMZ130-135-150-152-154-156-158-170-250-252-270-ANZ085-086-088-633-658-670-280200-
MARINE OBSERVATIONS

STATION/POSITION TIME  TEMP    WIND        PRES    WAVE   SWELL
                       AIR SEA DIR/SP/G            HT/PER HT/PER
                 (UTC) (F)     (DEG/KT/KT) (MB)    (FT/S) (FT/S)
CHESAPEAKE LIGHT 0100   56     330/ 13/ 14 1010.4
64 E VA BEACH    0050   55 55  310/  8/ 10 1008.8    2/ 9   2/ 9
DUCK             0100   54 56   10/  1/  2 1009.2
2 E DUCK         0011      55                N/A     2/ 8
OREGON INLET     0100   53 58   50/  3/  4 1010.1
13E OREGON INLT  NOT AVBL
HATTERAS CG      0006   57 64   40/  9/ 12 1009.1
DIAMOND BUOY     0050   62 74   30/ 14/ 17 1009.2    4/ 8   3/ 8
CAPE LOOKOUT     0100   64     320/ 10/ 11 1009.2
BEAUFORT LAB     0012   64 62  320/  4/  6 1008.5
27 SE WRIGHTSVLE 0100   63 72  280/ 12/ 14   N/A
5 SE WRIGHTSVLE  0008   65 65  230/  6/ 12 1009.7
225 S CAPE HAT   0050   66 71  360/ 12/ 14 1009.3    5/ 7   3/ 7
41 SE CHARLESTON 0050   66 71  200/  4/  6 1011.1    3/ 5   2/ 5

$$


USA.gov is the U.S. government's official web portal to all federal, state and local government web resources and services.